Find Starlink 33664

NORAD ID: 63415 Int'l Des: 2025-065 Owner: SPXS Country: US Constellation: starlink operational
LEOCIRCULAR

現在のビュー

3D地球を読み込み中...

About Starlink 33664

Starlink 33664 (NORAD 63415) is a starlink constellation satellite (v2 mini) launched Mar 31, 2025 by SPXS of US. It operates in LEO, CIRCULAR orbit with a mass of 575.00 kg.

Starlink 33664について

説明を読み込み中...

次回通過

Passes for default location (London). Set your location on the main map for personalized predictions.

高度履歴

Loading altitude history...

軌道要素

1 63415U 25065S 26167.57720653 .00013548 00000-0 50085-3 0 9996
2 63415 43.0014 268.5595 0000994 280.1357 79.9382 15.27586473 67965
Epoch: Jun 16, 2026 • Age: 44 hours

現在のステータス

高度 485.6 km
速度 7.63 km/s
衛星直下点 38.04°N, 39.57°W
打ち上げ日 Mar 31, 2025
運用期間 1.2 years
タイプ internet

技術仕様

分類 Payload
質量 575.00 kg
乾燥質量 530.00 kg
総質量 575.00 kg
長さ 0.30 m
直径 4.10 m
スパン 29.00 m
形状 Box + pan
製造者 SPXS
バスタイプ Starlink V2MO
フェーズステータス In Orbit
所有者/国 SPXS/US

Most Searched